Flag Weather past 2 weeks in Makati, Philippines

Now
79 °F

Scattered clouds.


Feels Like: 83 °F
Forecast: 78 / 89 °F
Wind: 1 mph from North

Location: National Airport

Current Time: Nov 1, 2014 at 7:46:02 AM

Latest Report: Nov 1, 2014 at 7:00 AM


Visibility: N/A

Pressure: 29.80 "Hg

Humidity: 100%

Dew point: 79 °F

Location of MakatiLocation

Historic Weather in Makati — Graph

°F

Makati temperature yesterday

Maximum temperature yesterday: 90 °F (at 3:00 PM)
Minimum temperature yesterday: 79 °F (at 2:00 AM)
Average temperature yesterday: 83 °F

Past Weeks' High & Low Weather Summary

 TemperatureHumidityPressure
High93 °F (Oct 19, 1:00 PM)100% (Oct 17, 8:00 PM)29.95 "Hg (Oct 17, 8:00 PM)
Low75 °F (Oct 18, 5:00 AM)52% (Oct 19, 2:00 PM)29.74 "Hg (Oct 31, 2:00 PM)
Average82 °F82%29.86 "Hg
* Reported Oct 17 6:00 AM — Nov 1 6:00 AM, Makati, Weather by CustomWeather, © 2014

Note: Actual official high and low records may vary slightly from our data, if they occured in-between our weather recording intervals... More about our weather records

Advertising

Makati weather history for previous 24 hours

 ConditionsComfort  
Time TempWeatherWind HumidityBarometerVisibility
6:00 AM
Nov 1
79 °FScattered clouds.3 mph100%29.77 "HgN/A
4:00 AM81 °FPartly cloudy.1 mph89%29.74 "HgN/A
3:00 AM81 °FPartly cloudy.3 mph89%29.77 "HgN/A
2:00 AM81 °FPartly cloudy.2 mph84%29.77 "HgN/A
1:00 AM82 °FPartly cloudy.3 mph84%29.77 "HgN/A
12:00 AM82 °FPartly cloudy.2 mph79%29.80 "HgN/A
11:00 PM
Oct 31
82 °FPartly cloudy.6 mph79%29.80 "HgN/A
10:00 PM82 °FPartly cloudy.6 mph74%29.80 "HgN/A
9:00 PM82 °FPassing clouds.7 mph74%29.83 "HgN/A
8:00 PM84 °FPassing clouds.5 mph66%29.80 "HgN/A
7:00 PM86 °FPassing clouds.7 mph59%29.77 "HgN/A
6:00 PM86 °FPassing clouds.6 mph62%29.77 "HgN/A
5:00 PM86 °FScattered clouds.6 mph70%29.77 "HgN/A
4:00 PM88 °FBroken clouds.8 mph62%29.74 "HgN/A
3:00 PM90 °FBroken clouds.10 mph59%29.74 "HgN/A
2:00 PM86 °FBroken clouds.7 mph66%29.74 "HgN/A
1:00 PM86 °FScattered clouds.7 mph66%29.77 "HgN/A
12:00 PM86 °FSprinkles. More clouds than sun.12 mph66%29.80 "HgN/A
11:00 AM88 °FBroken clouds.7 mph62%29.80 "HgN/A
10:00 AM86 °FScattered clouds.9 mph66%29.83 "HgN/A
9:00 AM86 °FScattered clouds.5 mph66%29.83 "HgN/A
8:00 AM82 °FScattered clouds.7 mph79%29.83 "HgN/A
7:00 AM81 °FBroken clouds.No wind94%29.83 "HgN/A
Weather by CustomWeather, © 2014

See weather overviewHow to use our weather pages